Location: Crescent
(42.8242°N, 73.7329°W)
Time: 19:06:30
(UTC+00:00)

Transit 2A - Pass Details

Date: 11 November 2024
Orbit: 593 x 956 km, 66.7° (Epoch: 14 December)

Event Time Altitude Azimuth Distance (km) Brightness Sun altitude
Reaches altitude 10° 09:50:20 10° 214° (SW) 2,657 8.5 -20.7°
Exits shadow 09:50:20 10° 214° (SW) 2,656 8.5 -20.7°
Maximum altitude 09:56:37 79° 301° (WNW) 976 6.3 -19.5°
Drops below altitude 10° 10:02:56 10° 29° (NNE) 2,661 9.1 -18.4°
Sets 10:05:27 0° 31° (NNE) 3,581 9.8 -17.9°
